Regional Weather Roundup
Issued by NWS Jackson, KY

Home | Current Version | Previous Version | Graphics & Text | Print | Product List | Glossary On
Versions: 1 2 3 4 5 6 7 8 9 10 11 12 13 14 15 16 17 18 19 20 21 22 23 24 25 26 27 28 29 30 31 32 33 34 35 36 37 38 39 40 41 42 43 44 45 46 47
000
ASUS43 KJKL 010310
RWRJKL

EAST KENTUCKY HOURLY WEATHER ROUNDUP
NATIONAL WEATHER SERVICE JACKSON KY
1100 PM EDT FRI JUL 31 2015

NOTE: "FAIR" INDICATES FEW OR NO CLOUDS BELOW 12,000 FEET WITH
NO SIGNIFICANT WEATHER AND/OR OBSTRUCTIONS TO VISIBILITY.

* THESE REPORTS ARE NOT UNDER NWS QUALITY CONTROL AND MAY NOT
  REPORT WEATHER SUCH AS PRECIPITATION AND FOG.

KYZ079-080-083-085-087-088-110-112-115-119-120-010400
...EASTERN KENTUCKY...

CITY           SKY/WX    TMP DP  RH WIND       PRES   REMARKS
JACKSON        CLEAR     74  59  59 W5        30.04R
LONDON         CLEAR     72  61  68 CALM      30.05R
SOMERSET*      CLEAR     68  63  83 CALM      30.06R
MONTICELLO*    CLEAR     66  65  97 CALM      30.08R
WILLIAMSBURG*  CLEAR     66  66 100 CALM      30.06R
MIDDLESBORO*   CLEAR     67  62  82 CALM      30.07R
HAZARD APT*    CLEAR     72  63  73 CALM      30.04R
BLACK MTN*       N/A     63  55  77 S1          N/A
PIKEVILLE APT* CLEAR     72  61  68 S3        30.04R
BIG SANDY*     CLEAR     72  63  72 CALM      30.02S
MOREHEAD APT*  CLEAR     75  59  57 SW6       30.03S
$$

KYZ035-036-041-042-044-050-067-078-099-010400
...CENTRAL KENTUCKY...

CITY           SKY/WX    TMP DP  RH WIND       PRES   REMARKS
MT STERLING*   CLEAR     68  64  88 W3        30.03S
FLEMING/MASON* CLEAR     72  61  68 SW7       30.01S
DANVILLE*      CLEAR     68  64  88 CALM      30.05S
RICHMOND*      CLEAR     73  63  68 SW5       30.03S
LEXINGTON      CLEAR     70  62  76 SW5       30.03R
FRANKFORT      CLEAR     71  63  75 SW6       30.01R
$$

KYZ091>093-OHZ055-061-077-WVZ005-015-034-035-042-010400
...SOUTHERN OHIO/WEST VIRGINIA...

CITY           SKY/WX    TMP DP  RH WIND       PRES   REMARKS
COVINGTON      PTCLDY    76  60  57 SW7       29.99R
COLUMBUS       PTCLDY    72  65  78 W5        29.93S
DAYTON         MOCLDY    70  64  81 NW7       29.97R
WILMINGTON     MOCLDY    71  62  73 SW7       29.96S
HUNTINGTON     CLEAR     70  65  84 SW3       29.98S
CHARLESTON     CLEAR     71  64  78 CALM      29.98S
PINEVILLE*     CLEAR     63  63 100 MISG      30.11R
BECKLEY        CLEAR     65  57  75 S6        30.09R
BLUEFIELD      CLEAR     68  56  65 SW5       30.12R
$$

VAZ002-007-008-TNZ017-027-036-066-071-010400
...SOUTHWEST VIRGINIA/EAST TENNESSEE...

CITY           SKY/WX    TMP DP  RH WIND       PRES   REMARKS
WISE*          CLEAR     66  55  68 CALM      30.14R
ABINGDON*      CLEAR     66  59  78 N3        30.09R
BRISTOL        CLEAR     66  60  81 CALM      30.06R
KNOXVILLE      CLEAR     74  61  63 NE3       30.03R
OAK RIDGE      CLEAR     73  63  70 CALM      30.06R
CROSSVILLE     CLEAR     71  59  65 N3        30.10R
NASHVILLE      PTCLDY    79  61  53 N3        30.05R
$$

...KEY TO REMARKS...
VSB - VISIBILITY IN MILES
WCI - WIND CHILL INDEX
HX  - HEAT INDEX

$$


USA.gov is the U.S. government's official web portal to all federal, state and local government web resources and services.